BV1EV-2 Weather Reports


time (UTC)temp
C
wind
direction
speed
KPH
gust
KPH
rain 1hr
cm
rain 24hr
cm
rain mn
cm
humidity
%
barometer
mb
20260505041747 26 0.0 0.0 0.00 0.00 0.00 60 1013.4
20260505035747 25 0.0 0.0 0.00 0.00 0.00 58 1013.5
20260505033747 25 0.0 0.0 0.00 0.00 0.00 54 1013.5
20260505031747 26 0.0 0.0 0.00 0.00 0.00 45 1013.5
20260505025747 26 0.0 0.0 0.00 0.00 0.00 36 1013.6
20260505023747 23 0.0 0.0 0.00 0.00 0.00 44 1014.0
20260505021747 25 0.0 0.0 0.00 0.00 0.00 38 1013.9
20260505015747 25 0.0 0.0 0.00 0.00 0.00 33 1014.1
20260505013747 26 0.0 0.0 0.00 0.00 0.00 33 1014.4
20260505011748 26 0.0 0.0 0.00 0.00 0.00 34 1014.3
20260505005747 27 0.0 0.0 0.00 0.00 0.00 36 1014.0
20260505003747 26 0.0 0.0 0.00 0.00 0.00 50 1014.1
20260505001746 25 0.0 0.0 0.00 0.00 0.00 49 1014.1
20260504235747 25 0.0 0.0 0.00 0.00 0.00 48 1013.7
20260504233748 25 0.0 0.0 0.00 0.00 0.00 48 1013.6
20260504231748 25 0.0 0.0 0.00 0.00 0.00 46 1013.8
20260504225747 24 0.0 0.0 0.00 0.00 0.00 46 1013.6
20260504223748 24 0.0 0.0 0.00 0.00 0.00 44 1013.4
20260504221748 23 0.0 0.0 0.00 0.00 0.00 42 1013.2
20260504215747 25 0.0 0.0 0.00 0.00 0.00 35 1013.0
20260504213747 25 0.0 0.0 0.00 0.00 0.00 33 1012.9
20260504211748 25 0.0 0.0 0.00 0.00 0.00 33 1012.6
20260504205748 25 0.0 0.0 0.00 0.00 0.00 33 1012.4
20260504203748 25 0.0 0.0 0.00 0.00 0.00 34 1012.4
20260504201747 25 0.0 0.0 0.00 0.00 0.00 33 1012.5
20260504195747 25 0.0 0.0 0.00 0.00 0.00 34 1012.4
20260504193747 26 0.0 0.0 0.00 0.00 0.00 34 1012.4
20260504191747 26 0.0 0.0 0.00 0.00 0.00 36 1012.5
20260504185748 26 0.0 0.0 0.00 0.00 0.00 37 1012.5
20260504183748 27 0.0 0.0 0.00 0.00 0.00 35 1012.7
20260504181747 27 0.0 0.0 0.00 0.00 0.00 37 1012.9
20260504175747 27 0.0 0.0 0.00 0.00 0.00 42 1013.2
20260504173747 27 0.0 0.0 0.00 0.00 0.00 44 1013.6
20260504171747 25 0.0 0.0 0.00 0.00 0.00 47 1014.0
20260504081748 30 0.0 0.0 0.00 0.00 0.00 44 1015.3